GFSSW_sfc_rhum_000.txt.gz
RH
70 68 68 68 68 70 72 75 76 77 76 73 72 78 79 78 76 28 22 34 41 54 56 34 25 26 30 40 43 46 57 42 34 37 34 20 20 16 18 19 20 23 28 27 24
77 74 72 71 72 73 75 76 74 73 76 78 79 79 76 80 29 19 33 46 48 54 31 22 24 25 35 36 40 45 47 38 31 28 32 22 20 18 20 25 29 30 25 23 22
79 79 78 78 77 77 78 78 76 77 77 79 81 79 80 63 26 20 42 41 46 44 28 20 21 26 33 38 30 32 43 34 28 25 25 22 19 16 21 32 29 33 27 23 23
80 81 82 82 80 78 78 79 78 77 76 82 84 84 83 26 20 19 40 46 48 29 20 18 22 31 35 30 24 29 28 25 30 24 26 22 19 22 21 32 22 25 24 24 23
81 82 82 82 82 81 81 81 78 78 80 85 84 85 41 18 12 16 42 40 20 17 21 21 20 26 28 22 24 23 24 23 24 26 22 19 24 23 28 31 27 24 24 24 23
81 82 82 83 84 84 83 83 81 80 84 84 83 87 26 16 9 10 12 13 15 18 19 22 20 18 21 25 22 20 21 23 23 21 22 22 25 28 26 31 30 27 28 25 25
82 82 83 85 85 85 84 84 83 83 84 82 83 38 20 11 8 9 12 13 15 18 21 19 19 19 23 30 20 20 23 24 22 20 22 22 30 32 25 28 27 28 28 27 27
80 83 84 86 87 86 85 86 87 86 84 84 84 29 18 10 11 10 10 12 15 16 22 26 23 25 26 21 19 19 20 34 21 21 22 24 33 27 23 28 29 27 26 30 28
82 83 85 86 88 88 87 86 82 81 80 78 35 26 15 23 12 10 11 13 15 16 24 15 24 27 31 29 28 25 25 25 27 18 22 25 32 26 26 28 29 27 26 27 30
82 85 86 88 89 89 89 80 66 69 51 29 23 19 12 10 12 11 11 14 18 20 22 22 27 30 26 27 31 25 22 18 21 22 20 29 28 31 30 28 29 27 26 26 28
84 86 88 88 89 90 59 30 30 33 23 21 17 14 11 9 11 12 11 15 18 21 28 26 29 31 22 21 17 22 20 19 17 19 24 25 25 23 28 32 33 30 26 26 25
82 87 88 89 91 93 68 31 29 30 28 17 16 14 13 10 11 10 11 18 22 30 22 27 32 21 17 19 19 19 21 20 18 22 26 28 26 21 19 30 32 30 28 26 26
80 86 89 88 89 62 26 26 29 25 31 20 18 16 15 14 12 10 13 16 21 25 21 25 22 16 18 23 21 24 22 20 19 26 24 28 32 25 19 16 25 28 27 25 25
85 84 86 86 54 22 22 26 30 30 33 23 21 17 16 16 18 11 12 18 20 22 21 21 16 18 22 18 18 24 20 18 24 28 34 26 38 24 18 22 17 20 28 27 26
93 88 87 88 42 23 30 28 29 31 51 22 18 13 14 18 23 22 19 22 29 20 22 25 24 24 24 19 16 25 30 30 28 31 32 28 39 28 20 24 20 18 20 27 27
94 94 88 48 40 29 29 28 30 38 38 22 18 18 19 18 16 24 22 23 25 25 21 20 21 20 19 18 21 26 31 38 37 40 51 28 29 28 22 18 19 18 19 25 28
86 92 82 31 36 37 32 28 36 40 18 21 20 17 18 17 17 23 27 27 27 33 32 23 21 20 18 28 33 32 36 49 60 64 53 23 24 20 18 18 17 19 23 26 29
84 90 64 30 26 38 34 28 45 23 18 16 17 18 20 17 17 17 24 29 25 22 26 27 29 23 19 24 31 34 31 39 43 44 34 29 39 24 16 19 19 21 23 28 32
85 40 38 32 34 37 36 35 27 22 18 20 19 22 21 19 17 19 20 24 21 22 29 24 23 17 18 19 20 32 40 28 33 27 35 28 22 17 14 21 22 22 24 34 34
67 46 37 31 29 32 40 46 29 24 25 25 28 23 25 21 21 21 22 20 22 19 19 22 26 20 22 22 23 25 30 42 42 43 40 26 24 28 19 20 21 23 28 32 35
62 38 47 35 31 30 44 40 34 25 25 27 30 29 29 30 26 23 21 20 22 23 21 22 27 32 34 34 31 36 38 34 34 31 37 31 30 16 16 15 19 20 23 31 36
44 38 40 33 47 36 40 32 39 30 28 31 30 33 31 32 34 32 32 23 21 23 26 21 31 34 35 27 24 26 28 29 34 34 30 28 28 17 21 13 14 17 21 29 34
43 37 35 36 47 34 28 25 24 28 32 32 34 32 31 38 47 35 32 27 27 29 30 30 35 43 35 38 36 34 27 24 26 29 31 33 28 17 18 19 18 18 22 25 31
40 30 24 37 38 45 46 40 39 33 35 45 50 47 49 51 44 48 44 37 54 35 52 51 36 35 43 35 35 40 32 28 28 34 31 32 27 23 23 20 22 24 23 24 27
35 32 37 32 34 33 31 31 33 38 32 33 38 39 52 70 70 81 64 58 52 58 50 44 43 33 31 27 27 28 31 31 33 31 35 28 27 22 21 25 20 21 23 23 25
51 56 52 53 38 32 32 25 26 27 28 34 40 38 45 54 68 85 83 78 83 72 83 75 79 53 39 29 28 30 27 29 31 29 29 28 30 21 22 22 23 20 20 22 23
47 48 60 65 49 44 37 30 29 25 24 22 25 31 48 45 40 51 74 81 83 87 89 93 97 94 90 40 34 40 32 30 30 28 29 35 29 27 26 24 22 26 24 23 24

GFSSW_sfc_rhum_003.txt.gz
RH
71 68 68 69 68 71 74 76 77 78 78 74 73 81 82 81 77 46 33 40 52 52 55 48 43 35 42 48 50 48 59 51 42 41 35 22 22 20 22 24 33 35 34 32 29
79 77 76 74 75 79 82 79 76 76 80 81 81 80 80 82 50 32 40 45 45 52 41 37 34 34 44 42 47 54 52 44 40 33 29 24 20 19 25 32 40 35 30 29 28
80 80 81 81 81 82 84 84 80 82 82 82 84 84 84 81 38 29 46 45 44 50 37 37 27 37 43 39 37 39 50 41 36 33 30 24 25 19 28 37 38 36 31 28 30
81 82 82 82 82 82 83 86 82 80 79 84 85 86 86 53 30 29 48 45 50 43 32 29 31 42 41 36 30 37 32 31 36 29 30 24 22 22 26 34 31 30 28 28 28
82 83 83 83 83 82 82 83 82 79 80 84 86 88 57 39 23 22 46 40 37 26 27 32 31 35 36 33 26 29 29 28 28 29 25 23 26 24 35 38 31 28 28 29 29
82 84 84 85 86 86 86 85 83 82 85 84 84 88 48 33 14 21 21 17 20 26 26 30 32 26 24 28 25 30 27 29 28 25 25 25 29 26 34 37 31 30 31 31 31
81 82 84 86 87 87 87 87 86 84 84 82 84 53 39 27 13 14 15 19 22 26 33 27 30 31 26 29 25 25 29 32 28 26 25 26 31 34 32 39 38 35 37 33 32
81 83 84 86 87 87 87 88 89 88 86 84 85 49 39 17 18 14 14 17 19 21 31 28 29 34 33 26 26 27 30 39 28 28 26 26 37 33 35 38 42 39 41 36 34
82 84 86 86 87 88 89 87 82 80 83 83 55 48 32 28 18 14 15 19 20 22 28 19 32 32 31 33 35 35 36 32 30 27 30 29 34 28 34 35 38 40 38 36 37
85 86 88 89 88 90 90 81 72 77 54 41 36 34 21 16 18 15 16 21 24 27 34 33 34 39 38 42 41 35 33 25 30 27 31 36 32 39 40 35 36 36 35 36 35
82 87 90 90 89 91 83 48 44 50 44 38 32 24 16 16 16 18 17 24 27 30 39 34 38 46 37 33 30 27 27 27 23 24 28 33 31 31 38 38 39 39 36 33 34
83 84 89 90 91 92 92 50 43 40 43 31 26 24 18 15 18 15 16 26 31 40 36 39 46 33 29 28 27 26 28 28 25 28 26 32 31 27 32 37 35 34 33 32 32
92 90 85 89 90 69 43 40 38 34 45 34 26 24 21 18 20 17 18 22 30 36 38 42 32 25 26 28 26 26 29 31 26 29 28 31 38 33 26 26 30 32 30 29 31
87 93 88 86 60 46 39 37 38 38 58 37 31 24 20 24 26 16 19 23 27 32 33 34 24 22 27 25 25 31 28 28 27 32 38 32 36 32 23 22 23 32 34 32 30
84 89 93 89 48 44 41 39 37 44 50 32 28 18 20 23 27 29 23 29 34 30 31 33 27 29 29 24 21 28 28 31 34 36 53 39 46 38 27 26 23 23 33 33 29
82 84 92 71 67 43 47 43 43 56 49 32 26 26 26 26 24 32 30 28 31 33 27 32 26 26 24 25 25 30 32 35 42 47 59 39 40 20 28 20 21 24 25 32 31
82 82 89 50 51 49 51 44 51 59 28 29 28 25 27 27 25 35 38 41 37 49 43 34 30 25 22 32 36 34 39 52 62 74 55 31 38 21 23 20 18 19 25 32 31
82 86 83 43 44 47 52 42 64 38 32 28 29 26 28 24 26 27 37 42 38 36 43 43 37 29 24 25 34 40 34 51 56 70 38 42 46 29 20 14 18 20 26 36 37
86 77 67 52 49 51 55 56 47 36 36 40 37 31 31 27 26 27 34 34 33 30 39 39 37 28 24 26 24 41 42 27 40 41 50 38 32 24 22 24 26 27 34 37 38
96 84 63 49 40 52 64 62 42 36 34 38 47 38 40 34 39 37 32 28 28 29 25 32 33 23 27 27 30 36 35 47 52 57 58 39 37 30 19 14 25 30 34 39 40
91 65 65 50 44 51 66 61 45 35 37 41 42 41 41 44 38 39 36 30 32 30 29 27 37 32 38 40 32 43 39 45 42 51 47 40 37 24 17 20 26 25 30 38 39
82 62 58 53 71 71 67 49 48 39 38 42 39 42 44 44 43 42 38 36 41 48 42 30 32 36 31 37 30 27 28 30 46 52 42 31 28 19 15 20 23 24 25 34 40
93 61 48 57 78 69 52 47 44 46 48 51 57 55 55 64 74 54 61 64 76 68 70 73 54 45 36 43 46 44 33 33 29 41 35 37 29 20 16 17 22 23 24 29 38
87 52 50 60 63 71 60 45 43 36 38 34 41 47 54 58 54 74 81 71 73 72 69 65 64 56 50 36 41 50 42 34 36 42 37 35 28 25 23 22 21 23 25 28 33
74 65 78 86 71 65 54 44 37 35 31 32 39 43 47 54 60 73 64 60 63 62 78 78 96 88 81 72 66 49 34 37 38 33 37 30 30 25 22 24 21 23 25 30 34
79 82 82 86 72 66 60 50 45 42 45 43 49 45 45 52 48 55 64 81 85 75 66 71 95 89 78 73 80 83 68 61 33 31 32 29 29 27 24 28 29 23 20 26 28
88 84 69 68 82 79 67 55 56 49 45 41 45 50 52 46 42 54 57 59 70 81 82 84 83 86 85 64 78 88 68 59 49 29 30 37 29 28 25 24 22 26 24 24 24

GFSSW_sfc_rhum_006.txt.gz
RH
71 69 69 70 71 72 75 77 79 79 78 75 74 80 81 82 79 44 35 40 51 50 53 48 48 38 45 50 50 54 54 50 43 42 38 27 22 25 27 31 39 40 36 32 31
79 78 77 76 78 80 82 80 78 77 80 82 79 80 80 84 55 34 38 44 47 50 42 39 36 38 45 46 48 52 46 37 38 37 31 27 22 22 29 38 44 41 38 35 33
77 81 81 82 82 82 84 83 80 80 80 83 83 84 84 86 40 30 49 46 48 48 41 40 37 40 46 44 42 47 49 43 34 36 29 26 26 24 33 40 40 37 35 34 36
77 82 82 82 83 82 83 84 81 79 78 82 84 86 88 61 29 29 52 54 52 45 33 34 37 43 46 40 34 40 35 32 35 32 29 29 27 24 33 31 33 33 31 34 34
80 83 84 84 84 84 84 84 82 80 80 83 83 86 56 42 27 22 54 49 37 31 32 38 37 41 39 37 36 33 31 29 32 28 28 29 26 25 29 36 35 32 31 33 33
80 82 83 84 85 86 85 86 84 82 85 82 82 86 48 35 18 20 29 22 26 30 31 34 34 32 31 28 30 28 30 34 32 28 27 28 30 29 30 38 37 31 32 32 32
81 82 83 85 85 85 84 85 84 85 84 82 83 63 46 30 14 23 21 20 23 28 35 33 34 34 31 29 25 30 32 35 32 29 27 26 30 33 33 37 36 36 37 34 34
82 82 84 86 86 85 85 86 88 88 84 83 84 59 39 21 18 15 16 19 20 24 31 30 35 38 37 27 25 29 32 40 30 31 27 25 36 29 37 41 40 38 40 37 35
84 84 85 86 87 86 87 85 81 77 79 81 63 52 38 29 16 16 16 20 23 25 28 20 34 36 34 34 35 38 37 38 31 32 33 26 31 29 40 42 42 41 39 37 39
82 86 89 89 89 88 88 78 72 66 53 46 41 40 27 18 20 18 17 21 27 31 34 34 38 44 43 41 37 35 38 31 31 30 35 38 32 31 40 43 38 41 41 39 37
90 88 87 89 88 87 71 48 44 46 44 36 35 29 20 18 18 19 21 25 29 36 42 38 41 48 42 37 31 28 33 30 28 24 34 35 31 28 32 47 44 44 41 40 35
84 89 91 86 89 88 84 47 45 40 48 37 33 33 25 18 20 17 20 28 35 41 40 45 49 29 34 36 36 33 33 32 30 25 31 35 35 29 37 43 40 38 39 37 34
79 84 86 90 88 73 42 43 41 38 43 36 34 32 25 17 21 19 20 26 34 40 42 49 37 33 33 37 36 35 31 34 29 30 32 36 37 35 32 31 31 33 32 33 33
80 84 81 91 62 48 44 41 42 39 55 38 34 26 23 23 26 20 20 24 32 36 39 43 31 30 38 34 31 34 31 28 30 34 40 34 34 34 31 29 33 30 29 34 32
83 84 84 89 40 48 43 46 43 43 40 34 31 20 24 24 24 29 24 30 32 33 39 38 33 39 36 29 27 30 32 32 33 38 53 38 46 50 32 28 22 22 23 30 31
83 84 86 66 68 43 52 50 41 49 42 36 29 29 29 28 25 33 31 30 33 36 33 35 31 30 30 26 26 29 36 44 55 52 57 36 38 23 26 22 18 15 19 24 34
83 85 88 60 49 49 56 42 43 48 28 34 34 29 30 29 28 33 34 36 35 44 40 32 26 28 24 30 38 36 40 53 56 67 50 35 41 24 21 21 20 16 17 29 36
84 88 83 56 49 52 45 38 57 36 39 37 39 35 29 27 30 34 44 45 41 41 48 43 30 34 27 25 31 42 35 52 55 56 32 43 45 24 24 15 13 18 21 29 43
85 81 72 58 57 57 46 53 47 44 39 45 43 47 36 34 31 33 43 44 37 37 39 42 43 30 28 23 26 35 46 30 35 45 52 47 40 23 27 24 25 25 25 33 42
91 86 69 61 46 56 58 62 48 42 41 46 58 47 50 42 45 42 41 34 34 37 30 38 40 27 24 32 34 31 34 48 56 52 52 37 40 29 25 17 18 27 31 32 44
80 65 60 59 45 53 68 68 51 38 44 47 52 54 51 51 46 49 44 38 66 60 53 42 44 41 39 39 37 45 41 47 47 51 43 39 31 28 19 18 19 20 26 30 41
85 66 50 54 70 87 72 53 56 48 42 53 56 64 66 57 67 61 53 47 71 74 84 72 84 68 45 30 28 27 29 30 42 44 56 34 31 22 22 21 22 18 24 38 44
92 71 46 54 65 75 64 50 45 42 37 41 54 56 48 64 71 72 70 63 73 73 81 76 89 95 73 53 49 52 44 38 34 34 39 44 35 23 21 20 20 25 27 32 38
76 62 68 65 70 73 70 55 47 37 38 37 36 48 48 50 48 57 56 55 48 58 61 74 88 92 97 98 96 92 84 75 79 54 41 39 33 26 26 26 24 24 26 27 33
80 89 84 85 74 85 75 56 50 47 46 44 48 53 56 64 55 54 48 46 48 48 79 76 94 78 83 66 64 70 70 76 94 84 91 75 55 28 24 23 22 22 25 30 34
87 87 87 91 85 80 75 64 57 60 62 55 64 56 55 64 59 67 64 68 65 62 75 85 81 68 78 64 62 61 60 65 77 61 68 61 62 35 25 26 24 22 22 25 29
96 90 88 81 83 87 83 69 68 64 61 54 61 67 70 59 56 59 64 67 66 69 69 71 81 88 79 55 54 69 54 60 49 44 58 85 86 59 64 55 31 28 26 21 20

GFSSW_sfc_rhum_009.txt.gz
RH
72 70 70 71 71 73 76 78 79 80 79 76 74 79 82 85 80 50 37 38 48 48 55 48 48 42 45 50 53 57 57 55 43 45 39 31 22 25 32 32 38 36 38 38 34
81 80 79 78 79 81 82 82 80 78 79 81 79 78 78 86 62 37 35 47 43 48 42 41 38 37 45 47 49 43 49 43 39 41 38 31 23 24 30 40 42 41 39 40 41
72 78 82 82 82 83 84 83 81 80 80 81 85 85 84 87 42 28 49 47 42 48 42 41 42 42 46 47 45 55 41 34 38 34 34 30 27 26 34 44 38 36 36 39 44
76 78 82 84 84 84 84 85 82 80 79 80 84 86 87 63 22 28 55 51 45 49 33 38 39 43 48 44 38 43 39 39 40 32 31 30 26 24 34 29 32 34 34 35 40
80 82 83 84 83 83 83 84 83 81 82 81 81 86 65 44 29 24 55 52 41 33 34 39 39 42 42 42 40 40 34 35 34 31 29 30 28 27 29 31 40 35 37 35 36
81 81 82 83 84 84 83 83 81 80 83 81 80 84 50 36 21 23 34 28 30 33 34 39 39 35 37 32 35 33 32 32 34 32 30 29 32 30 26 32 37 38 38 35 35
82 82 82 84 84 84 83 83 83 84 83 80 81 63 49 34 17 24 26 22 25 29 37 37 36 37 36 30 26 34 34 34 36 36 30 30 31 35 27 40 38 42 36 35 35
84 83 84 86 86 85 84 84 87 86 80 80 83 51 36 26 19 23 21 19 22 28 34 32 37 39 39 28 26 35 35 43 33 34 30 26 33 30 32 42 42 43 41 36 35
84 84 86 88 88 87 87 85 81 76 76 79 58 48 42 28 16 16 18 22 24 27 31 21 34 39 36 37 37 39 39 40 34 34 33 30 35 27 32 42 40 42 40 36 35
83 89 88 87 89 87 86 76 71 67 62 50 42 34 28 22 20 20 19 23 29 33 33 35 42 47 48 43 39 38 42 36 34 28 42 40 35 28 42 49 40 39 40 38 35
82 85 88 90 85 86 72 50 41 40 41 25 32 23 22 19 20 21 21 23 30 33 44 42 44 47 42 39 32 30 36 32 30 26 38 40 34 28 29 51 48 49 45 43 37
78 80 85 86 91 89 85 45 42 38 49 40 38 38 32 20 20 19 23 26 36 42 45 48 53 34 37 40 40 41 38 37 32 28 35 35 35 31 28 42 34 38 42 41 39
79 81 82 86 90 65 41 46 44 38 43 33 37 35 31 24 24 21 22 31 37 41 45 51 36 37 36 37 41 39 39 37 29 28 36 41 35 38 34 32 34 36 31 32 37
81 82 81 86 57 44 47 45 46 38 50 36 36 29 25 26 28 23 22 25 35 37 43 47 32 32 40 41 38 36 36 34 34 41 43 38 35 30 33 32 34 30 30 35 35
84 85 85 80 40 48 53 56 47 39 35 36 32 23 25 27 27 34 25 34 32 34 40 38 38 39 46 32 35 41 33 40 42 45 53 43 44 47 36 31 26 22 28 27 28
84 84 87 67 61 48 61 50 41 41 40 38 30 29 30 30 26 35 32 31 33 38 38 31 31 33 34 31 32 34 38 46 60 55 56 36 40 26 20 24 22 20 20 22 22
84 84 88 67 51 49 56 42 44 48 30 34 36 32 33 31 31 36 38 38 33 40 42 34 33 33 25 32 38 37 42 59 58 70 46 35 42 24 22 24 23 19 16 17 23
87 86 85 68 64 57 43 39 60 39 43 45 45 46 33 32 32 37 46 45 39 41 48 45 39 32 29 28 34 42 35 46 59 54 32 47 49 24 24 21 19 18 18 17 22
83 82 70 63 58 56 42 54 51 54 46 49 45 52 44 43 45 42 48 44 42 42 43 44 45 31 29 28 30 38 50 32 40 30 48 31 35 27 29 30 27 27 25 25 21
90 80 70 63 48 51 52 62 56 48 50 51 64 55 61 53 56 53 51 44 72 70 71 54 55 36 33 34 36 34 36 48 59 55 52 38 42 32 26 22 20 24 25 27 29
71 71 58 54 49 60 69 72 58 49 38 51 57 61 64 67 67 67 55 59 76 77 73 82 74 64 49 49 45 42 48 48 46 52 47 46 37 26 22 19 19 20 21 24 26
66 71 48 52 69 92 79 65 60 49 33 36 47 67 71 56 70 73 69 60 53 62 84 75 89 89 71 48 41 38 39 53 58 60 59 42 38 25 26 23 23 23 22 24 33
79 71 47 53 75 86 59 41 46 38 36 43 46 51 47 62 57 70 54 56 51 45 63 77 88 95 66 61 74 88 66 64 81 92 96 80 55 33 45 52 46 34 23 23 29
72 40 58 69 78 71 78 54 51 43 45 48 44 51 56 58 50 58 53 51 50 50 50 61 87 88 92 80 70 72 61 57 73 96 83 85 78 55 49 53 57 52 36 22 28
85 93 87 70 71 85 82 66 56 54 54 54 52 63 68 74 64 61 58 56 57 56 67 76 81 66 59 54 54 57 68 67 71 76 91 60 44 40 39 56 69 66 63 62 41
92 88 92 93 87 82 78 62 60 69 73 67 62 68 70 80 72 83 70 72 72 60 64 76 81 68 75 58 57 62 53 53 66 54 52 58 78 59 54 73 74 74 71 64 53
97 90 84 78 85 85 81 71 70 69 62 61 69 78 79 69 63 65 65 65 66 72 70 70 79 84 87 63 63 75 56 49 47 43 45 67 68 81 84 77 73 73 70 61 66

GFSSW_sfc_rhum_012.txt.gz
RH
72 71 71 72 72 73 76 78 79 79 78 77 77 79 80 86 80 52 38 37 47 48 52 49 46 40 46 51 55 56 55 58 48 47 39 36 28 29 34 34 38 35 38 41 40
80 80 80 79 80 82 83 82 80 79 79 81 80 79 79 86 68 42 33 46 42 48 42 42 40 39 46 49 50 48 55 45 40 44 40 37 27 26 30 40 40 41 39 44 55
70 77 81 82 82 82 83 83 81 80 80 80 81 82 84 90 39 27 45 47 40 44 42 42 44 44 45 49 51 54 41 36 38 36 36 36 32 30 32 42 34 34 36 42 58
77 78 82 83 83 83 83 84 82 81 79 80 80 86 88 64 18 26 54 48 41 49 33 36 37 46 49 44 43 44 42 43 42 34 35 33 30 28 35 26 32 32 36 42 50
81 82 82 82 81 80 80 81 80 78 80 80 80 84 58 38 28 24 53 47 36 34 35 40 40 45 45 45 43 45 40 36 35 34 30 33 30 28 29 29 36 39 38 42 39
82 82 82 83 83 83 82 81 80 79 81 80 79 81 47 30 21 31 32 27 31 34 36 40 41 38 40 37 38 35 36 33 35 35 33 31 32 34 33 27 33 40 41 42 38
82 83 83 85 86 85 83 83 83 83 82 78 78 55 47 25 22 27 27 24 26 31 37 38 38 38 38 34 28 30 35 34 36 38 35 33 31 34 30 37 33 42 44 43 39
83 83 84 87 87 86 85 85 86 86 82 78 80 49 35 25 25 26 24 21 23 28 34 34 38 40 41 34 29 32 37 45 34 41 35 28 31 27 30 37 35 39 48 44 41
84 85 86 86 87 88 87 84 81 74 75 78 58 48 33 34 18 18 20 22 25 28 33 22 35 41 38 41 42 41 40 42 35 34 38 32 39 31 33 41 38 40 41 43 38
80 82 86 89 87 85 85 76 65 66 68 54 41 26 24 24 22 21 22 23 30 34 34 33 46 48 50 46 44 43 43 40 34 29 44 42 40 31 33 42 40 38 44 46 42
78 80 83 84 86 88 73 51 35 37 40 21 27 21 24 20 21 21 23 26 32 35 42 45 45 42 46 44 41 35 39 36 30 28 41 43 38 31 26 48 43 42 45 45 40
78 79 82 82 88 88 78 46 43 41 46 44 42 40 36 28 26 20 24 25 37 42 48 49 49 35 37 43 44 45 46 41 35 32 38 39 32 27 26 34 31 32 35 38 38
80 82 82 85 86 62 44 50 48 40 43 34 39 38 33 30 34 23 23 33 38 44 47 45 26 39 39 43 42 42 46 39 37 34 35 40 31 27 33 31 38 34 28 26 33
82 83 83 84 49 43 52 56 50 39 43 32 35 29 26 30 34 24 25 26 38 36 43 48 41 38 43 42 39 43 36 35 38 46 42 40 35 27 28 26 34 35 33 32 30
83 84 85 65 38 53 51 64 50 37 35 36 32 24 26 30 28 34 27 34 32 36 44 34 42 42 46 42 38 43 39 43 47 54 57 47 49 24 32 31 27 24 27 31 29
83 84 87 68 58 53 56 56 40 40 40 37 31 29 28 31 29 34 33 32 33 39 41 36 35 34 36 34 36 38 43 48 65 57 63 39 45 26 26 25 23 21 20 21 22
86 86 80 66 55 57 56 41 41 44 36 49 49 44 36 32 30 33 38 38 33 35 43 36 33 37 33 38 36 40 46 63 61 74 54 36 43 24 24 27 23 20 18 17 20
87 84 83 64 76 71 43 38 57 55 58 49 47 50 43 49 41 42 45 46 41 44 51 49 47 34 33 36 34 48 45 59 60 64 47 46 49 26 27 26 26 23 23 23 22
81 79 72 50 62 53 43 56 64 65 52 54 49 54 58 51 53 55 56 49 68 78 70 68 52 43 40 36 34 45 54 40 43 36 48 37 34 24 23 25 28 25 26 27 25
87 79 65 44 61 48 53 63 64 50 50 55 66 58 65 68 62 60 63 80 88 77 83 82 90 56 49 46 42 42 40 52 59 63 61 46 48 39 28 25 31 44 40 36 30
68 67 55 45 54 59 72 76 63 49 33 47 67 64 74 59 61 64 54 76 73 69 78 91 95 69 68 68 73 64 59 53 51 47 72 92 61 41 63 56 48 44 38 47 46
61 59 47 50 65 94 80 67 56 46 36 39 48 60 63 62 61 69 76 73 50 47 69 82 98 83 63 47 56 61 66 70 97 92 90 93 76 52 46 36 31 31 42 49 50
68 66 46 53 75 61 50 36 49 39 44 50 46 53 52 58 50 59 58 55 58 55 60 67 87 88 57 48 64 70 58 55 67 97 94 97 80 40 41 30 29 26 61 62 60
66 24 49 72 84 63 72 48 47 46 56 54 52 58 61 63 49 58 58 53 55 54 52 61 84 82 87 77 68 71 58 50 55 77 63 64 66 48 40 42 36 47 68 66 57
84 94 89 70 67 83 82 71 59 57 66 56 55 72 76 84 73 69 60 56 62 58 68 68 84 69 62 58 59 62 62 59 64 62 74 64 59 47 45 41 44 64 68 59 52
84 70 87 92 88 81 72 59 63 75 73 69 66 78 80 93 79 84 76 80 76 67 70 74 82 71 81 62 58 64 58 57 57 56 55 52 55 49 77 75 62 52 56 60 60
97 93 67 80 86 68 65 72 76 72 62 65 74 83 87 74 65 72 69 74 77 79 80 81 86 93 82 64 72 80 53 56 52 56 51 71 91 82 82 73 70 60 62 63 62

GFSSW_sfc_rhum_015.txt.gz
RH
72 72 71 72 72 73 76 79 79 78 78 78 78 79 79 86 81 36 25 28 38 49 49 41 35 38 38 44 48 45 48 43 42 43 36 30 29 22 24 26 30 28 27 28 31
80 79 79 79 80 81 82 82 80 78 79 81 80 77 77 86 56 32 29 40 42 48 37 38 38 38 41 40 43 44 48 40 37 38 35 30 28 23 24 28 29 28 28 32 43
75 78 80 81 81 81 81 81 80 79 79 80 80 81 83 85 28 20 43 45 43 39 34 34 34 34 35 38 36 39 40 34 28 35 33 29 28 23 27 32 26 27 25 34 46
80 81 82 82 82 82 81 82 81 79 78 79 80 85 86 51 18 21 52 49 42 38 28 32 33 38 39 34 33 35 36 37 38 32 28 28 25 26 31 25 24 25 28 35 45
78 82 82 82 82 81 80 80 79 78 78 79 80 83 46 24 23 21 51 41 30 29 31 35 32 35 35 33 34 36 33 32 35 37 32 27 30 27 28 24 24 28 32 33 36
79 82 82 83 85 84 83 82 80 80 82 80 78 80 37 22 19 28 30 23 28 28 31 32 32 31 31 30 29 29 30 31 32 31 30 28 32 29 27 24 23 27 29 30 32
82 82 83 85 86 86 84 83 82 83 82 80 78 49 33 17 22 22 25 22 25 29 32 32 30 31 30 33 26 26 30 32 30 30 30 31 31 31 24 24 22 24 24 30 33
81 83 84 86 86 86 86 85 85 86 81 77 78 40 27 22 28 24 22 20 22 26 32 34 35 33 31 30 28 27 29 36 27 33 32 26 30 24 23 25 25 24 23 32 31
81 82 84 86 88 84 83 82 78 74 73 77 53 40 21 32 18 17 21 20 24 26 29 23 32 37 34 37 36 36 28 34 30 28 31 30 35 28 25 28 27 24 24 27 29
78 80 82 84 84 87 85 74 68 67 65 54 35 26 20 23 21 20 21 23 27 31 32 34 41 40 40 36 24 26 32 31 33 24 34 36 36 30 25 27 26 22 22 27 27
79 80 82 82 83 87 68 44 32 33 37 28 32 24 23 21 19 19 21 24 29 33 32 39 34 32 35 40 32 29 30 31 27 24 27 26 26 25 23 29 32 28 23 24 24
81 82 83 83 87 86 65 45 44 41 44 43 39 38 35 32 29 20 22 24 34 35 39 38 39 28 31 37 40 38 38 36 34 31 31 32 29 24 24 22 21 24 22 21 20
82 84 84 86 84 59 50 53 52 42 38 32 35 36 33 30 31 28 22 30 33 38 42 31 23 38 35 37 39 39 36 34 29 29 30 34 27 25 24 23 22 24 23 20 21
84 83 83 81 47 45 54 60 58 42 36 35 32 27 26 34 35 24 24 28 33 33 40 41 36 34 39 39 35 41 33 30 33 36 34 29 29 23 17 17 26 26 27 26 26
85 85 84 65 36 56 55 64 53 36 30 34 28 22 24 29 28 32 26 33 30 30 36 29 36 40 43 37 36 37 34 38 40 41 42 36 37 17 21 21 18 16 18 25 26
86 85 85 67 57 58 59 55 39 36 41 39 37 39 32 27 26 30 32 32 32 39 38 34 33 31 30 32 36 35 35 40 54 47 52 31 33 23 19 19 19 16 18 19 18
87 84 75 63 61 70 55 41 32 36 44 52 49 44 44 42 31 37 40 37 37 41 42 37 32 33 32 32 34 34 41 47 44 55 46 34 34 23 19 17 18 18 20 27 30
84 82 79 44 68 66 42 32 33 58 57 49 47 49 46 53 47 51 46 50 69 54 47 54 46 32 38 40 42 39 39 43 48 40 35 32 39 24 20 22 32 36 36 35 36
79 74 58 41 60 52 40 57 66 63 50 57 50 56 56 58 52 48 57 68 82 80 85 84 66 46 39 43 36 40 44 38 45 44 50 39 31 24 20 32 35 30 25 27 32
80 73 54 40 62 47 57 65 65 43 37 51 62 58 64 66 56 51 46 85 82 61 75 77 72 57 54 43 40 52 46 58 53 67 61 44 41 40 34 48 38 31 26 24 34
69 54 46 40 54 57 73 74 63 44 36 46 65 57 69 57 53 49 43 61 53 47 60 73 86 52 47 44 56 46 44 38 54 55 77 74 56 51 44 42 29 21 27 30 42
58 41 43 50 59 85 71 64 54 40 43 47 53 52 55 53 46 59 68 64 54 50 58 59 84 71 49 38 36 41 60 47 72 66 69 79 74 36 38 24 23 31 28 30 34
61 54 37 38 26 32 40 35 46 42 57 51 50 54 52 53 42 47 56 61 56 54 56 58 69 69 30 35 37 42 42 42 52 72 72 68 44 22 26 28 29 36 38 36 46
47 18 41 68 78 49 48 46 39 51 60 51 54 62 64 65 53 52 56 52 54 54 50 57 76 72 67 60 66 67 58 55 60 80 70 62 55 44 41 42 62 62 61 50 49
74 88 83 43 66 74 66 60 52 74 64 55 66 76 80 84 79 73 59 54 62 56 59 68 84 66 62 58 59 63 66 61 62 61 78 65 61 52 55 76 58 52 50 50 50
62 59 79 87 84 58 57 64 68 72 68 60 69 76 77 86 71 75 73 74 74 62 62 68 79 70 80 60 56 60 56 56 56 51 50 52 62 59 71 57 51 50 49 54 54
96 93 46 81 81 47 68 76 78 68 59 61 68 79 86 74 66 66 71 70 72 72 69 78 78 80 88 59 62 78 55 39 35 37 43 65 60 67 72 55 47 49 52 55 55